STARLINK-33588 (62781 NORAD) Tracking and Keplerian Element Data

This shows tracking and keplerian element data for the satellite.

Feedback or suggestion? Click here.




ElementValue
Catalog62781
NameSTARLINK-33588
Epoch Orbit337
Epoch Day35.16668981
Epoch Year2025
RAAN19.027
Inclination53.1598
Eccentricity0.0001168
Argument of Perigee80.6604
Mean Anonmoly113.5149
Mean Motion15.78078113
Decay Rate-0.01201774
L11 62781U 25015Z 25035.16668981 -.01201774 00000+0 -77870-2 0 9991
L22 62781 53.1598 19.0270 0001168 80.6604 113.5149 15.78078113 3374



Live tracking and technical data element details for STARLINK-33588 (NORAD 62781). STARLINK-33588 can be tracked NOW for your location showing map with azimuth and elevation plus other details from your city location.







IsCatalogInMostPopularTable: catalog: 62781, numindb: 2
Update: records affected: 1



GetName: 62781 STARLINK-33588

Hit Count: updated at: Sun, 09 Feb 2025 14:50:14 GMT